Regional Weather Roundup
Issued by NWS Cleveland, OH

Home | Current Version | Previous Version | Graphics & Text | Print | Product List | Glossary On
Versions: 1 2 3 4 5 6 7 8 9 10 11 12 13 14 15 16 17 18 19 20 21 22 23 24 25 26 27 28 29 30 31 32 33 34 35 36 37 38 39 40 41 42 43 44 45 46 47 48 49 50
000
ASUS41 KCLE 280310
RWRCLE
OHIO REGIONAL WEATHER ROUNDUP
NATIONAL WEATHER SERVICE CLEVELAND, OH
1100 PM EDT FRI MAR 27 2015

NOTE: "FAIR" INDICATES FEW OR NO CLOUDS BELOW 12,000 FEET WITH NO
SIGNIFICANT WEATHER AND/OR OBSTRUCTIONS TO VISIBILITY.

OHZ001>008-015>018-024>027-034-035-043-044-280400-
   NORTHWEST OHIO

CITY           SKY/WX    TMP DP  RH WIND       PRES   REMARKS
DEFIANCE       CLEAR     23  10  57 N3        30.12R
FINDLAY        CLEAR     23  14  68 NE5       30.10R WCI  17
TOLEDO EXPRESS CLEAR     20  10  65 CALM      30.12R
TOLEDO EXEC    CLEAR     23   9  55 N5        30.13R WCI  17
LIMA           CLEAR     24  13  62 NE3       30.09R
$$

OHZ009>014-019>023-028>033-038-089-280400-
   NORTHEAST OHIO

CITY           SKY/WX    TMP DP  RH WIND       PRES   REMARKS
CLE-HOPKINS    FLURRIES  19   9  65 N12       30.13R WCI   7
CLE-LAKEFRONT  PTCLDY    20   9  62 N12       30.12R WCI   8
CUY CO. ARPT   CLOUDY    19  10  68 N15       30.09S WCI   5
LORAIN-ELYRIA  CLOUDY    20  11  68 NE12      30.11R WCI   8
ASHTABULA      CLOUDY    17   9  70 N12G18    30.07R WCI   4
AKRON-CANTON   FLURRIES  20  12  71 N13       30.05R WCI   7
WOOSTER        LGT SNOW  20  14  77 N10       30.07R WCI   9
MANSFIELD      LGT SNOW  20  17  88 N7        30.06R VSB 1   WCI  11
YOUNGSTOWN     CLOUDY    18   9  68 NW12      30.04R WCI   5
$$

OHZ042-051>053-060>062-070>072-077>081-280400-
  SOUTHWEST OHIO

CITY           SKY/WX    TMP DP  RH WIND       PRES   REMARKS
CINC-COVINGTON CLOUDY    28  18  66 NW8       30.10R WCI  20
CINC-LUNKEN    CLOUDY    29  15  56 N13       30.13R WCI  19
HAMILTON       CLOUDY    30  14  51 NW7       30.12R WCI  23
DAYTON         MOCLDY    27  14  58 N12       30.09R WCI  17
WRIGHT-PAT AFB MOCLDY    27  15  60 N6        30.09R WCI  20
DAYTON GENERAL CLOUDY    28  12  51 NW14      30.08R WCI  17
WILMINGTON     CLOUDY    26  14  60 N10       30.07R WCI  16
$$

OHZ036-037-039>041-045>050-054>059-063>069-073>076-082>088-280400-
  CENTRAL AND SOUTHEAST OHIO

CITY           SKY/WX    TMP DP  RH WIND       PRES   REMARKS
COLUMBUS       MOCLDY    25  16  68 N12       30.08R WCI  14
OSU AIRPORT    PTCLDY    23  14  68 N7        30.08R WCI  15
BOLTON FIELD   MOCLDY   N/A N/A N/A NW6       30.08R
RICKENBACK AFB PTCLDY    24  10  53 N8        30.08R WCI  16
NEWARK         LGT SNOW  24  20  84 NW7       30.06S FOG     WCI  16
MARION         PTCLDY    17  13  84 N7        30.09R WCI   8
LANCASTER      CLOUDY    27  17  66 N13       30.07R WCI  16
ZANESVILLE     FLURRIES  24  19  81 NW7       30.04S WCI  16
NEW PHILLY     CLOUDY    24  13  62 N10       30.07R WCI  14
$$



USA.gov is the U.S. government's official web portal to all federal, state and local government web resources and services.